Palmdale, CA

8:01 AM PST on February 13, 2016 (GMT -0800)
Palmdale Af Plant 42

Weather History for KPMD - April, 2011

Change the Weather History Date:

Saturday, April 16, 2011

  Actual Average Record
Temperature  
Mean Temperature 65 °F 58 °F  
Max Temperature 85 °F 72 °F 94 °F (1994)
Min Temperature 45 °F 43 °F 27 °F (1976)
Degree Days  
Heating Degree Days 0 8  
Month to date heating degree days 148 148  
Since 1 July heating degree days 2815 2769  
Cooling Degree Days 0 1  
Month to date cooling degree days 1 1  
Year to date cooling degree days 2 3  
Growing Degree Days 15 (Base 50)    
Moisture  
Dew Point 39 °F    
Average Humidity 44    
Maximum Humidity 71    
Minimum Humidity 16    
Precipitation  
Precipitation 0.00 in 0.02 in 0.35 in (1978)
Month to date precipitation T 0.27  
Year to date precipitation 2.33 4.78  
Since 1 July precipitation 7.71  
Snow  
Snow 0.00 in - 0.00 in (1973)
Month to date snowfall 0.0  
Since 1 July snowfall 0.0  
Snow Depth 0.00 in    
Sea Level Pressure  
Sea Level Pressure 29.95 in    
Wind  
Wind Speed 7 mph (West)    
Max Wind Speed 26 mph    
Max Gust Speed 33 mph    
Visibility 10 miles    
Events      
T = Trace of Precipitation, MM = Missing Value Source: NWS Daily Summary

Daily Weather History Graph

Daily Weather History Graph

Search for Another Location

Airport or City:

Trip Planner

Search our weather history database for the weather conditions in past years. The results will help you decide how hot, cold, wet, or windy it might be!

Date:

Astronomy

Apr. 16, 2011 Rise Set
Actual Time 6:19 AM PDT 7:25 PM PDT
Civil Twilight 5:53 AM PDT 7:51 PM PDT
Nautical Twilight 5:22 AM PDT 8:22 PM PDT
Astronomical Twilight 4:51 AM PDT 8:54 PM PDT
Moon 6:14 PM PDT (4/16) 5:01 AM PDT (4/16)
Length of Visible Light 13h 57m
Length of Day
13h 05m
Waxing Gibbous, 97% of the Moon is Illuminated
Apr 16
Waxing Gibbous
Apr 17
Full
Apr 24
Last Quarter
May 2
New
May 10
First Quarter

Hourly Weather History & Observations

Time (PDT) Temp. Windchill Dew Point Humidity Pressure Visibility Wind Dir Wind Speed Gust Speed Precip Events Conditions
12:53 AM 53.1 °F - 36.0 °F 52% 30.04 in 10.0 mi SSW 3.5 mph - N/A   Clear
1:53 AM 51.1 °F - 37.0 °F 59% 30.03 in 10.0 mi West 6.9 mph - N/A   Clear
2:53 AM 52.0 °F - 37.0 °F 57% 30.01 in 10.0 mi West 3.5 mph - N/A   Clear
3:53 AM 46.9 °F - 37.0 °F 68% 30.01 in 10.0 mi Calm Calm - N/A   Clear
4:53 AM 46.9 °F - 37.9 °F 71% 30.01 in 10.0 mi Calm Calm - N/A   Clear
5:53 AM 46.0 °F 44.8 °F 37.9 °F 73% 30.01 in 10.0 mi SSE 3.5 mph - N/A   Clear
6:53 AM 48.0 °F - 39.0 °F 71% 30.02 in 10.0 mi South 4.6 mph - N/A   Clear
7:53 AM 57.9 °F - 39.9 °F 51% 30.02 in 10.0 mi Calm Calm - N/A   Clear
8:53 AM 64.0 °F - 39.0 °F 40% 30.02 in 10.0 mi NNW 5.8 mph - N/A   Clear
9:53 AM 66.9 °F - 39.0 °F 36% 30.01 in 10.0 mi Calm Calm - N/A   Clear
10:53 AM 72.0 °F - 39.0 °F 30% 30.00 in 10.0 mi Calm Calm - N/A   Clear
11:53 AM 75.0 °F - 39.9 °F 28% 29.97 in 10.0 mi Variable 4.6 mph - N/A   Clear
12:53 PM 78.1 °F - 39.9 °F 25% 29.94 in 10.0 mi North 5.8 mph - N/A   Clear
1:53 PM 80.1 °F - 35.1 °F 20% 29.91 in 10.0 mi Variable 3.5 mph - N/A   Clear
2:53 PM 82.0 °F - 35.1 °F 18% 29.88 in 10.0 mi Variable 5.8 mph - N/A   Clear
3:53 PM 82.9 °F - 34.0 °F 17% 29.87 in 10.0 mi Variable 4.6 mph - N/A   Clear
4:53 PM 84.0 °F - 34.0 °F 17% 29.85 in 10.0 mi West 8.1 mph - N/A   Clear
5:53 PM 79.0 °F - 44.1 °F 29% 29.85 in 10.0 mi WNW 17.3 mph - N/A   Clear
6:53 PM 72.0 °F - 44.1 °F 37% 29.86 in 10.0 mi WNW 21.9 mph 33.4 mph N/A   Clear
7:53 PM 66.9 °F - 44.1 °F 44% 29.86 in 10.0 mi WNW 18.4 mph - N/A   Clear
8:53 PM 66.2 °F - 42.8 °F 43% 29.94 in 10.0 mi WNW 17.3 mph - N/A   Clear
9:53 PM 64.9 °F - 43.0 °F 45% 29.89 in 10.0 mi WNW 20.7 mph - N/A   Clear
10:53 PM 62.1 °F - 43.0 °F 50% 29.89 in 10.0 mi SW 3.5 mph - N/A   Clear
11:53 PM 61.0 °F - 43.0 °F 52% 29.88 in 10.0 mi SW 8.1 mph - N/A   Clear